User: anonymous   Login
Location: Vancouver
(49.2500°N, 123.1330°W)
Time: 11:17:22
(UTC-08:00)
Language:

Cosmos 1408 Rocket - Orbit

View from above orbital plane
View from above orbital plane
View from above satellite
View from above satellite

Ground track
Ground track

The orbit data is extracted from the following two-line orbital elements,

1 13553U 82092B   17019.49490953  .00000093  00000-0  81503-5 0  9993
2 13553  82.5682  12.6111 0021603 172.0461 303.9194 14.84101687854988
Epoch (UTC): 19 January 2017 11:52:40
Eccentricity: 0.0021603
inclination: 82.5682°
perigee height: 601 km
apogee height: 631 km
right ascension of ascending node: 12.6111°
argument of perigee: 172.0461°
revolutions per day: 14.84101687
mean anomaly at epoch: 303.9194°
orbit number at epoch: 85498

The dashed part of the orbit path shows where the satellite is in the earth's shadow,  

DLR